Showing default

OPS 9326 (IDSCS 13), 2653

Orbit data source: Space-Track

OPS 9326 (IDSCS 13), 2653 is a payload satellite owned by USAF SSD (US) in GEO that was launched on Wed, 18 Jan 1967 UTC via a TITAN IIIC launch vehicle from the Air Force Eastern Test Range (AFETR). Payload-class satellites include a variety of spacecraft equipped with specific instruments for various scientific and technological missions. These include communications satellites like Starlink; space stations such as the ISS; scientific satellites like the Hubble; Earth observation satellites from companies like Planet Labs, Umbra, and HawkEye 360; GPS; miniature CubeSats for education and research; and military/defense satellites.

Loading next visibility...
Identifier
2653, 1967-003F
Orbit
GEO
Country
Flag of USUS
Related business
Manufacturer
Philco-Ford WDL
Mission
Non-operational spacecraft
Bus & Motor
IDCSP, Unknown motor
Mass
45 kg wet, 45 kg dry
Launch date (UTC)
1967-01-18 (60 years ago)
Launch vehicle
TITAN IIIC
Launch site
Air Force Eastern Test Range (AFETR)
Object type
Payload
Rocket body
Debris
Shape & HBR
ICO POLY, 1.1 m
Radar Cross Section
Medium (>0.1 m² and <1 m²)

Expand to show TLE details & history
Last TLE update: 23 hours ago

TLE from 23 hours ago
0 OPS 9326 (IDSCS 13)
1 02653U 67003F   26263.69746785 -.00000057  00000-0  00000-0 0  9996
2 02653   8.3633  45.2978 0044924  68.3635 292.2062  1.07748643133729
Epoch: 2026-09-20T16:44Z
TLE epoch observation values (Epoch: 2026-09-20T16:44:21.222Z)
Latitude
Longitude
154.69367°
Altitude
33,745.488 km
Speed
3.155 km/s
True Right ascension
03h 01m 28s
True Declination
0° 00' 00"
Sunlit
Object was in daylight at epoch
Visualization orbit readout
Latitude
Unknown
Longitude
Unknown
Altitude
Unknown
Speed
Unknown
Apparent Right ascension
Unknown
Apparent Declination
Unknown
Sunlit
N/A
Visualization observer readout
Local Sidereal Time
09:14:43
Azimuth
Unknown
Elevation
Unknown
Doppler factor
Unknown
Orbital elements
Apogee altitude
33,994.367 km
Perigee altitude
33,633.251 km
Semi-major axis
40,191.946 km
Eccentricity
0.00449
Inclination
8.3633°
RAAN
45.2978°
Arg. of periapsis
68.3635°
True anomaly
291.72858°
Mean anomaly
292.2062°
Eccentric anomaly
291.96749°
Mean motion
0.26936 °/min
Orbital period
1,336.5 mins
BSTAR
0
Loading maneuver chart data...
Computing Atmospheric mass density...
Loading historical data...
Loading historical data...
Loading historical data...
Loading historical data...
Loading historical data...
Loading historical data...
Loading historical data...

Documentation

Showing up to 5 results
|